When you browse on this site, cookies collect data to enhance your experience and personalize the content and advertising you see.
Visit our Privacy Policy to learn more. By continuing to use the site, you agree to this use of cookies and data.
  • Em Portugal
  • Lista de países
  • Para 7 dias
  • Temperatura da água
  • Mapas de satélite
  • Mapa do tempo
  • Widgets de tempo
  • user-avatar
    Iniciar Sessão

    Previsão horária em Kalat

    Hoje, 21 Novembro, Quarta-feira

    Tempo Temperatura Precipitação Vento Pressão Humidade
    00:00 -15°C° 0 mm 3 m/s 471 mmHg 55%
    01:00 -15°C° 0 mm 3 m/s 471 mmHg 53%
    02:00 -15°C° 0 mm 3 m/s 471 mmHg 51%
    03:00 -15°C° 0 mm 3 m/s 471 mmHg 49%
    04:00 -15°C° 0 mm 3 m/s 470 mmHg 48%
    05:00 -15°C° 0 mm 3 m/s 470 mmHg 46%
    06:00 -14°C° 0 mm 3 m/s 471 mmHg 47%
    07:00 -14°C° 0 mm 3 m/s 471 mmHg 47%
    08:00 -13°C° 0 mm 3 m/s 471 mmHg 47%
    09:00 -11°C° 0 mm 4 m/s 473 mmHg 50%
    10:00 -9°C° 0 mm 4 m/s 474 mmHg 53%
    11:00 -5°C° 0 mm 4 m/s 476 mmHg 57%
    12:00 -5°C° 0 mm 4 m/s 475 mmHg 58%
    13:00 -5°C° 0 mm 4 m/s 475 mmHg 59%
    14:00 -5°C° 0 mm 4 m/s 475 mmHg 60%
    15:00 -7°C° 0.1 mm 4 m/s 474 mmHg 64%
    16:00 -8°C° 0.1 mm 4 m/s 473 mmHg 68%
    17:00 -9°C° 0.1 mm 4 m/s 472 mmHg 72%
    18:00 -9°C° 0.1 mm 4 m/s 472 mmHg 73%
    19:00 -10°C° 0.1 mm 4 m/s 472 mmHg 75%
    20:00 -10°C° 0.1 mm 4 m/s 472 mmHg 77%
    21:00 -10°C° 0.1 mm 4 m/s 472 mmHg 78%
    22:00 -10°C° 0.1 mm 4 m/s 472 mmHg 79%
    23:00 -10°C° 0.1 mm 4 m/s 472 mmHg 81%

    Amanhã, 22 Novembro, Quinta-feira

    Tempo Temperatura Precipitação Vento Pressão Humidade
    00:00 -10°C° 0.3 mm 4 m/s 472 mmHg 81%
    01:00 -10°C° 0.3 mm 4 m/s 472 mmHg 82%
    02:00 -10°C° 0.3 mm 4 m/s 472 mmHg 83%
    03:00 -10°C° 0.3 mm 4 m/s 472 mmHg 83%
    04:00 -9°C° 0.3 mm 3 m/s 472 mmHg 84%
    05:00 -9°C° 0.3 mm 3 m/s 472 mmHg 85%
    06:00 -9°C° 0.3 mm 3 m/s 473 mmHg 85%
    07:00 -9°C° 0.3 mm 3 m/s 473 mmHg 85%
    08:00 -9°C° 0.3 mm 3 m/s 473 mmHg 85%
    09:00 -9°C° 0.3 mm 3 m/s 474 mmHg 84%
    10:00 -8°C° 0.3 mm 3 m/s 474 mmHg 82%
    11:00 -7°C° 0.3 mm 3 m/s 475 mmHg 81%
    12:00 -7°C° 0.3 mm 3 m/s 475 mmHg 81%
    13:00 -7°C° 0.3 mm 3 m/s 474 mmHg 81%
    14:00 -7°C° 0.3 mm 3 m/s 474 mmHg 81%
    15:00 -7°C° 0.2 mm 2 m/s 474 mmHg 83%
    16:00 -7°C° 0.2 mm 2 m/s 473 mmHg 84%
    17:00 -8°C° 0.2 mm 2 m/s 473 mmHg 86%
    18:00 -9°C° 0.1 mm 2 m/s 473 mmHg 86%
    19:00 -10°C° 0.1 mm 2 m/s 473 mmHg 85%
    20:00 -12°C° 0.1 mm 2 m/s 472 mmHg 85%
    21:00 -12°C° 0 mm 2 m/s 472 mmHg 83%
    22:00 -13°C° 0 mm 2 m/s 472 mmHg 80%
    23:00 -15°C° 0 mm 3 m/s 471 mmHg 78%

    Depois de amanhã, 23 Novembro, Sexta-feira

    Tempo Temperatura Precipitação Vento Pressão Humidade
    00:00 -15°C° 0 mm 3 m/s 471 mmHg 75%
    01:00 -15°C° 0 mm 3 m/s 471 mmHg 73%
    02:00 -15°C° 0 mm 3 m/s 471 mmHg 70%
    03:00 -15°C° 0 mm 3 m/s 471 mmHg 68%
    04:00 -15°C° 0 mm 3 m/s 471 mmHg 66%
    05:00 -15°C° 0 mm 3 m/s 471 mmHg 64%
    06:00 -14°C° 0 mm 3 m/s 472 mmHg 62%
    07:00 -14°C° 0 mm 3 m/s 472 mmHg 60%
    08:00 -14°C° 0 mm 3 m/s 472 mmHg 58%
    09:00 -10°C° 0 mm 3 m/s 474 mmHg 58%
    10:00 -8°C° 0 mm 3 m/s 476 mmHg 57%
    11:00 -6°C° 0 mm 3 m/s 477 mmHg 57%
    12:00 -4°C° 0 mm 2 m/s 477 mmHg 57%
    13:00 -4°C° 0 mm 2 m/s 477 mmHg 57%
    14:00 -3°C° 0 mm 2 m/s 477 mmHg 58%
    15:00 -5°C° 0 mm 2 m/s 476 mmHg 62%
    16:00 -6°C° 0 mm 2 m/s 475 mmHg 66%
    17:00 -7°C° 0 mm 1 m/s 474 mmHg 70%
    18:00 -8°C° 0 mm 2 m/s 474 mmHg 69%
    19:00 -9°C° 0 mm 2 m/s 474 mmHg 67%
    20:00 -12°C° 0 mm 3 m/s 474 mmHg 66%
    21:00 -12°C° 0 mm 3 m/s 474 mmHg 63%
    22:00 -12°C° 0 mm 3 m/s 473 mmHg 60%
    23:00 -12°C° 0 mm 3 m/s 473 mmHg 57%

    24 Novembro, Sábado

    Tempo Temperatura Precipitação Vento Pressão Humidade
    00:00 -12°C° 0 mm 3 m/s 473 mmHg 55%
    01:00 -12°C° 0 mm 3 m/s 473 mmHg 53%
    02:00 -12°C° 0 mm 3 m/s 473 mmHg 52%
    03:00 -12°C° 0 mm 3 m/s 473 mmHg 51%
    04:00 -12°C° 0 mm 3 m/s 473 mmHg 50%
    05:00 -10°C° 0 mm 3 m/s 473 mmHg 49%
    06:00 -10°C° 0 mm 3 m/s 473 mmHg 48%
    07:00 -9°C° 0 mm 3 m/s 474 mmHg 48%
    08:00 -9°C° 0 mm 3 m/s 474 mmHg 47%
    09:00 -6°C° 0 mm 2 m/s 476 mmHg 49%
    10:00 -3°C° 0 mm 2 m/s 478 mmHg 51%
    11:00 -1°C° 0 mm 2 m/s 479 mmHg 54%
    12:00 -1°C° 0 mm 2 m/s 479 mmHg 55%
    13:00 +1°C° 0 mm 2 m/s 479 mmHg 56%
    14:00 +1°C° 0 mm 2 m/s 479 mmHg 58%
    15:00 -2°C° 0 mm 2 m/s 478 mmHg 60%
    16:00 -3°C° 0 mm 2 m/s 477 mmHg 62%
    17:00 -3°C° 0 mm 1 m/s 476 mmHg 64%
    18:00 -6°C° 0 mm 2 m/s 476 mmHg 66%
    19:00 -6°C° 0 mm 2 m/s 476 mmHg 69%
    20:00 -6°C° 0 mm 2 m/s 476 mmHg 72%
    21:00 -7°C° 0.1 mm 2 m/s 476 mmHg 74%
    22:00 -7°C° 0.1 mm 2 m/s 476 mmHg 76%
    23:00 -7°C° 0.1 mm 2 m/s 477 mmHg 78%

    25 Novembro, Domingo

    Tempo Temperatura Precipitação Vento Pressão Humidade
    00:00 -7°C° 0 mm 2 m/s 476 mmHg 77%
    01:00 -6°C° 0 mm 1 m/s 476 mmHg 77%
    02:00 -7°C° 0 mm 1 m/s 475 mmHg 77%
    03:00 -7°C° 0 mm 1 m/s 475 mmHg 77%
    04:00 -9°C° 0 mm 2 m/s 474 mmHg 77%
    05:00 -10°C° 0 mm 2 m/s 474 mmHg 77%
    06:00 -9°C° 0 mm 2 m/s 474 mmHg 76%
    07:00 -9°C° 0 mm 2 m/s 474 mmHg 75%
    08:00 -9°C° 0 mm 2 m/s 475 mmHg 74%
    09:00 -6°C° 0 mm 1 m/s 476 mmHg 69%
    10:00 -3°C° 0 mm 1 m/s 477 mmHg 64%
    11:00 -2°C° 0 mm 0 m/s 478 mmHg 59%
    12:00 -1°C° 0 mm 1 m/s 478 mmHg 59%
    13:00 0°C° 0 mm 1 m/s 478 mmHg 60%
    14:00 0°C° 0 mm 1 m/s 478 mmHg 60%
    15:00 -1°C° 0 mm 1 m/s 477 mmHg 63%
    16:00 -3°C° 0 mm 1 m/s 475 mmHg 66%
    17:00 -6°C° 0 mm 1 m/s 473 mmHg 69%
    18:00 -6°C° 0 mm 1 m/s 474 mmHg 67%
    19:00 -8°C° 0 mm 2 m/s 474 mmHg 64%
    20:00 -9°C° 0 mm 3 m/s 474 mmHg 62%
    21:00 -9°C° 0 mm 3 m/s 474 mmHg 60%
    22:00 -9°C° 0 mm 3 m/s 474 mmHg 58%
    23:00 -9°C° 0 mm 3 m/s 474 mmHg 56%

    26 Novembro, Segunda-feira

    Tempo Temperatura Precipitação Vento Pressão Humidade
    00:00 -9°C° 0 mm 3 m/s 473 mmHg 54%
    01:00 -9°C° 0 mm 3 m/s 473 mmHg 53%
    02:00 -10°C° 0 mm 3 m/s 473 mmHg 51%
    03:00 -10°C° 0 mm 3 m/s 473 mmHg 50%
    04:00 -10°C° 0 mm 3 m/s 473 mmHg 50%
    05:00 -10°C° 0 mm 3 m/s 472 mmHg 49%
    06:00 -9°C° 0 mm 3 m/s 473 mmHg 49%
    07:00 -9°C° 0 mm 3 m/s 473 mmHg 50%
    08:00 -9°C° 0 mm 3 m/s 473 mmHg 50%
    09:00 -7°C° 0 mm 3 m/s 475 mmHg 52%
    10:00 -5°C° 0 mm 3 m/s 476 mmHg 54%
    11:00 -2°C° 0 mm 3 m/s 478 mmHg 57%
    12:00 -1°C° 0 mm 3 m/s 477 mmHg 58%
    13:00 -2°C° 0 mm 4 m/s 477 mmHg 59%
    14:00 -2°C° 0 mm 4 m/s 477 mmHg 59%
    15:00 -2°C° 0 mm 3 m/s 476 mmHg 62%
    16:00 -4°C° 0 mm 3 m/s 475 mmHg 65%
    17:00 -5°C° 0 mm 3 m/s 474 mmHg 67%
    18:00 -6°C° 0 mm 3 m/s 474 mmHg 68%
    19:00 -6°C° 0 mm 3 m/s 474 mmHg 69%
    20:00 -7°C° 0 mm 3 m/s 474 mmHg 70%
    21:00 -7°C° 0.1 mm 3 m/s 474 mmHg 71%
    22:00 -7°C° 0.1 mm 3 m/s 474 mmHg 71%
    23:00 -7°C° 0.1 mm 3 m/s 474 mmHg 72%
    Mostrar mais